Location: Betz
(49.1556°N, 2.9558°E)
Time: 09:28:30
(UTC+00:00)

Cosmos 2219 Rocket - Pass Details

Date: 18 September 2019
Orbit: 829 x 845 km, 71.0° (Epoch: 14 October)

Event Time Altitude Azimuth Distance (km) Brightness Sun altitude
Rises 18:33:33 0° 331° (NNW) 3,383 6.0 -7.0°
Reaches altitude 10° 18:36:00 10° 333° (NNW) 2,446 5.2 -7.4°
Maximum altitude 18:41:37 83° 61° (ENE) 844 2.2 -8.3°
Drops below altitude 10° 18:47:13 10° 150° (SSE) 2,436 4.2 -9.2°
Sets 18:49:39 0° 151° (SSE) 3,369 4.9 -9.6°
